FW3092 Weather Reports


Display with metric or nautical units.
time (UTC)temp
F
wind
direction
speed
MPH
gust
MPH
rain 1hr
in
rain 24hr
in
rain mn
in
humidity
%
barometer
mb
20260510094555 47 206 3.0 5.0 0.00 0.33 0.07 93 953.0
20260510093055 47 205 1.0 4.0 0.00 0.33 0.07 93 953.0
20260510091559 47 213 1.0 4.0 0.00 0.33 0.07 93 952.8
20260510084558 47 221 3.0 6.0 0.00 0.33 0.07 93 952.7
20260510083051 47 238 2.0 5.0 0.00 0.33 0.07 93 952.7
20260510081550 47 217 2.0 5.0 0.00 0.33 0.07 93 952.6
20260510080058 47 223 2.0 5.0 0.00 0.33 0.07 93 952.3
20260510074549 46 225 2.0 4.0 0.00 0.34 0.07 93 952.2
20260510073048 47 211 1.0 4.0 0.00 0.34 0.07 92 952.1
20260510071548 47 196 4.0 7.0 0.00 0.34 0.07 92 952.0
20260510070049 47 192 4.0 7.0 0.00 0.34 0.07 93 952.0
20260510064604 47 213 4.0 7.0 0.00 0.34 0.07 92 952.1
20260510063047 47 194 4.0 7.0 0.00 0.34 0.07 92 951.9
20260510061547 47 208 4.0 8.0 0.00 0.34 0.07 92 952.4
20260510060043 48 202 5.0 10.0 0.01 0.34 0.07 92 952.1
20260510054539 48 201 6.0 11.0 0.02 0.34 0.07 92 952.3
20260510053040 48 179 6.0 13.0 0.05 0.34 0.07 92 952.4
20260510051534 48 190 7.0 11.0 0.07 0.34 0.07 92 952.6
20260510050032 48 185 7.0 10.0 0.06 0.33 0.06 92 953.0
20260510044533 48 200 4.0 9.0 0.05 0.32 0.05 92 953.0
20260510043027 48 254 8.0 11.0 0.02 0.28 0.02 92 953.3
20260510041524 49 289 6.0 13.0 0.00 0.27 0.00 92 953.2
20260510040024 49 265 6.0 9.0 0.00 0.27 0.00 92 953.2
20260510034520 49 275 7.0 14.0 0.00 0.27 0.27 93 953.2
20260510033019 49 192 4.0 8.0 0.00 0.27 0.27 92 952.0
20260510031519 49 192 4.0 8.0 0.00 0.27 0.27 92 952.0
20260510030018 49 219 6.0 8.0 0.00 0.27 0.27 92 952.0
20260510024517 49 202 5.0 8.0 0.00 0.27 0.27 92 952.1
20260510023018 49 202 5.0 11.0 0.00 0.27 0.27 92 951.7
20260510021617 49 156 4.0 10.0 0.00 0.27 0.27 92 951.5
20260510020016 49 184 5.0 10.0 0.00 0.27 0.27 92 951.6
20260510014517 49 194 6.0 10.0 0.00 0.27 0.27 92 951.3
20260510013020 49 198 5.0 10.0 0.00 0.27 0.27 92 951.2
20260510011520 49 196 6.0 10.0 0.00 0.27 0.27 92 951.3
20260510010014 50 198 5.0 12.0 0.00 0.27 0.27 91 951.0
20260510004516 50 196 5.0 10.0 0.00 0.27 0.27 91 950.9
20260510003012 50 169 4.0 8.0 0.00 0.27 0.27 91 950.8
20260510001512 50 184 4.0 7.0 0.00 0.27 0.27 90 950.8
20260510000011 51 180 4.0 6.0 0.00 0.27 0.27 90 950.8
20260509234518 51 193 4.0 7.0 0.00 0.27 0.27 89 950.5
20260509233023 52 187 5.0 11.0 0.00 0.27 0.27 89 950.5
20260509231508 52 185 6.0 11.0 0.00 0.27 0.27 90 950.2
20260509230008 52 203 5.0 10.0 0.00 0.27 0.27 90 950.3
20260509224508 52 186 5.0 11.0 0.00 0.27 0.27 90 950.5
20260509223006 52 194 7.0 13.0 0.00 0.27 0.27 90 950.6
20260509221505 52 223 6.0 10.0 0.00 0.27 0.27 91 950.5
20260509220006 52 196 7.0 12.0 0.00 0.27 0.27 91 950.5
20260509214601 52 186 5.0 12.0 0.00 0.27 0.27 91 950.5
20260509213054 51 167 7.0 12.0 0.00 0.27 0.27 92 950.7
20260509211559 51 204 6.0 11.0 0.00 0.27 0.27 92 950.7
20260509210104 51 177 7.0 12.0 0.00 0.27 0.27 92 950.8
20260509204547 51 201 7.0 14.0 0.00 0.27 0.27 92 950.9
20260509203046 50 212 7.0 11.0 0.00 0.27 0.27 92 951.1
20260509201554 50 204 7.0 11.0 0.00 0.27 0.27 92 951.2
20260509200045 50 207 6.0 10.0 0.00 0.27 0.27 92 951.3
20260509194540 50 207 7.0 12.0 0.00 0.27 0.27 92 951.6
20260509193044 50 191 6.0 12.0 0.00 0.27 0.27 92 951.7
20260509191539 50 222 8.0 12.0 0.00 0.27 0.27 92 951.8
20260509190035 49 203 4.0 9.0 0.00 0.27 0.27 92 951.9
20260509184540 49 201 5.0 10.0 0.00 0.27 0.27 93 951.8
20260509183035 49 190 5.0 10.0 0.00 0.27 0.27 93 951.8
20260509181529 49 193 6.0 13.0 0.00 0.27 0.27 93 951.8
20260509180028 49 177 6.0 9.0 0.00 0.27 0.27 93 951.8
20260509174527 49 179 6.0 11.0 0.00 0.27 0.27 93 951.7
20260509173029 49 198 6.0 10.0 0.00 0.27 0.27 93 951.7
20260509171532 48 210 6.0 9.0 0.00 0.27 0.27 93 951.7
20260509170023 48 197 3.0 11.0 0.01 0.27 0.27 93 951.8
20260509164621 48 206 4.0 7.0 0.01 0.27 0.27 93 952.0
20260509163034 49 191 5.0 9.0 0.01 0.27 0.27 93 951.9
20260509161523 48 189 7.0 12.0 0.02 0.27 0.27 93 952.1
20260509160016 48 173 6.0 11.0 0.01 0.26 0.26 93 952.1
20260509154515 48 173 4.0 10.0 0.02 0.26 0.26 93 952.2
20260509153020 48 175 3.0 10.0 0.03 0.26 0.26 93 952.3
20260509151511 48 179 5.0 9.0 0.02 0.25 0.25 93 952.6
20260509150006 47 165 2.0 9.0 0.04 0.27 0.25 93 952.7
20260509144504 47 185 2.0 9.0 0.03 0.26 0.24 93 952.7
20260509143002 47 171 2.0 9.0 0.04 0.25 0.23 93 952.8
20260509141600 47 138 4.0 10.0 0.05 0.25 0.23 93 952.8
20260509141502 47 175 5.0 10.0 0.05 0.25 0.23 93 952.8
20260509140105 47 160 3.0 6.0 0.04 0.23 0.21 93 952.7
20260509134558 46 192 3.0 9.0 0.05 0.24 0.21 93 952.9
20260509133105 46 155 3.0 9.0 0.05 0.22 0.19 93 953.0
20260509131556 46 178 2.0 6.0 0.05 0.21 0.18 93 953.0
20260509130057 46 172 3.0 7.0 0.05 0.20 0.17 93 953.1
20260509124558 46 190 2.0 7.0 0.06 0.19 0.16 93 953.0
20260509123101 45 173 4.0 7.0 0.07 0.17 0.14 93 953.0
20260509121558 45 191 3.0 7.0 0.08 0.16 0.13 93 953.0
20260509120048 45 185 4.0 6.0 0.09 0.15 0.12 92 953.4
20260509114557 45 174 4.0 7.0 0.08 0.13 0.10 92 953.3
20260509113041 44 169 6.0 11.0 0.06 0.10 0.07 92 953.3
20260509111540 44 157 4.0 7.0 0.04 0.08 0.05 92 953.2
20260509110039 44 168 3.0 7.0 0.02 0.06 0.03 92 953.2
20260509104536 43 174 4.0 8.0 0.01 0.05 0.02 92 953.1
20260509103034 43 197 3.0 7.0 0.00 0.04 0.01 92 953.0
20260509101536 43 195 4.0 8.0 0.00 0.04 0.01 92 953.0
20260509100032 43 184 5.0 7.0 0.00 0.04 0.01 91 952.9